Location: Wanzleben
(52.0609°N, 11.4408°E)
Time: 17:09:00
(UTC+00:00)

NOSS 2-2 (E) - Pass Details

Date: 18 September 2020
Orbit: 469 x 1737 km, 63.3° (Epoch: 19 October)

Event Time Altitude Azimuth Distance (km) Brightness Sun altitude
Rises 19:13:02 0° 226° (SW) 2,503 6.9 -17.4°
Reaches altitude 10° 19:15:02 10° 227° (SW) 1,652 6.0 -17.6°
Maximum altitude 19:18:36 85° 314° (NW) 528 3.2 -18.1°
Drops below altitude 10° 19:22:51 10° 45° (NE) 1,964 6.0 -18.7°
Sets 19:25:24 0° 46° (NE) 3,035 6.9 -19.1°
